Flag for French Polynesia Weather past 2 weeks in Taiohae, Marquesas Islands, French Polynesia

Now
79 °F

Warm.


Feels Like: 84 °F
Forecast: 79 / 85 °F
Wind: 3 mph from Northeast

Location: Atuona

Current Time: Mar 31, 2015 at 9:18:38 AM

Latest Report: Mar 31, 2015 at 8:30 AM


Visibility: N/A

Pressure: 29.98 "Hg

Humidity: 92%

Dew point: 77 °F

Location of TaiohaeLocation

Historic Weather in Taiohae — Graph

°F

Taiohae temperature yesterday

Maximum temperature yesterday: 89 °F (at 11:30 AM)
Minimum temperature yesterday: 74 °F (at 2:30 AM)
Average temperature yesterday: 79 °F

Past Weeks' High & Low Weather Summary

 TemperatureHumidityPressure
High92 °F (Mar 16, 12:30 PM)95% (Mar 30, 4:30 AM)30.00 "Hg (Mar 30, 4:30 AM)
Low72 °F (Mar 26, 3:30 AM)51% (Mar 16, 3:30 PM)29.78 "Hg (Mar 16, 2:30 PM)
Average80 °F77%29.90 "Hg
* Reported Mar 16 7:30 AM — Mar 31 7:30 AM, Taiohae, Weather by CustomWeather, © 2015

Note: Actual official high and low records may vary slightly from our data, if they occured in-between our weather recording intervals... More about our weather records

Advertising

Taiohae weather history for previous 24 hours

 ConditionsComfort  
Time TempWeatherWind HumidityBarometerVisibility
7:30 AM
Tue, Mar 31
76 °FMild.No wind94%29.97 "HgN/A
6:30 AM76 °FThunderstorms. Overcast.2 mph94%29.93 "Hg7 mi
5:30 AM76 °FThunderstorms. Overcast.3 mph93%29.91 "Hg8 mi
4:30 AM78 °FWarm.1 mph85%29.89 "HgN/A
3:30 AM79 °FWarm.3 mph83%29.88 "HgN/A
2:30 AM78 °FWarm.3 mph81%29.87 "HgN/A
1:30 AM78 °FWarm.1 mph83%29.88 "HgN/A
12:30 AM77 °FMild.3 mph84%29.91 "HgN/A
11:30 PM
Mon, Mar 30
76 °FMild.No wind86%29.93 "HgN/A
10:30 PM76 °FMild.1 mph87%29.95 "HgN/A
9:30 PM76 °FMild.No wind86%29.95 "HgN/A
8:30 PM76 °FMild.No wind83%29.94 "HgN/A
7:30 PM77 °FWarm.2 mph81%29.92 "HgN/A
6:30 PM79 °FWarm.2 mph77%29.89 "HgN/A
4:30 PM84 °FPartly sunny.7 mph64%29.85 "Hg31 mi
3:30 PM85 °FPartly sunny.7 mph65%29.85 "Hg31 mi
2:30 PM84 °FPartly sunny.9 mph66%29.86 "Hg37 mi
1:30 PM87 °FOvercast.8 mph64%29.86 "Hg37 mi
12:30 PM87 °FPartly sunny.9 mph63%29.89 "Hg37 mi
11:30 AM89 °FPartly sunny.6 mph72%29.93 "Hg43 mi
10:30 AM84 °FScattered clouds.3 mph82%29.96 "Hg43 mi
9:30 AM81 °FScattered clouds.2 mph86%29.98 "Hg43 mi
Weather by CustomWeather, © 2015

See weather overviewHow to use our weather pages